Regional Weather Roundup
Issued by NWS

Home | Current Version | Previous Version | Graphics & Text | Print | Product List | Glossary On
Versions: 1 2 3 4 5 6 7 8 9 10 11 12 13 14 15 16 17 18 19 20 21 22 23 24 25 26 27 28 29 30 31 32 33 34 35 36 37 38 39 40 41 42 43 44 45 46 47 48 49 50
000
ASUS43 KFSD 301310
RWRSD

WEATHER ROUNDUP FOR SOUTH DAKOTA
NATIONAL WEATHER SERVICE SIOUX FALLS SD
800 AM CDT SAT APR 30 2016

NOTE: "FAIR" INDICATES FEW OR NO CLOUDS BELOW 12,000 FEET WITH NO
SIGNIFICANT WEATHER AND/OR OBSTRUCTIONS TO VISIBILITY.


SDZ001>005-009-010-012>017-301400-
NORTHWEST AND NORTH CENTRAL SOUTH DAKOTA

CITY           SKY/WX    TMP DP  RH WIND       PRES   REMARKS
BUFFALO          N/A     40  34  79 NE9       30.05R
FAITH            N/A     40  36  86 N10       30.08R
MOBRIDGE       CLOUDY    44  39  82 N12       30.07R
$$

SDZ012>016-024>037-041>051-057-063-072>074-301400-
SOUTHWEST AND SOUTH CENTRAL SOUTH DAKOTA

CITY           SKY/WX    TMP DP  RH WIND       PRES   REMARKS
RAPID CTY ARPT CLOUDY    40  37  89 N13       30.05R
PIERRE         PTSUNNY   43  38  82 NE15      30.02R
CUSTER         CLOUDY    31  28  89 NE15G30   29.99R WCI  20
ELLSWORTH AFB  CLOUDY    40  40 100 N14       30.05R
PHILIP         CLOUDY    43  38  82 NE16G22   30.03R
PINE RIDGE     LGT RAIN  37  34  89 NE17      29.97R FOG
WINNER         LGT RAIN  43  38  82 NE15      29.96R
$$

SDZ004>011-016>023-039-040-301400-
NORTHEAST SOUTH DAKOTA

CITY           SKY/WX    TMP DP  RH WIND       PRES   REMARKS
ABERDEEN       CLOUDY    43  36  76 NE15      30.10R
WATERTOWN      CLOUDY    41  32  70 NE17      30.02S
BROOKINGS      PTSUNNY   40  35  83 NE15G21   29.97S
SISSETON         N/A     44  34  67 E12       30.10S
$$

SDZ017-020-022-023-036>040-048>070-301400-
SOUTHEAST SOUTH DAKOTA

CITY           SKY/WX    TMP DP  RH WIND       PRES   REMARKS
SIOUX FALLS    CLOUDY    45  38  76 E20G26    29.93R
HURON          CLOUDY    42  38  85 NE10      30.01R
CHAMBERLAIN    CLOUDY    45  41  86 NE9       29.99R
MITCHELL       CLOUDY    45  40  82 NE14      29.98R
YANKTON        CLOUDY    43  39  87 NE17      29.87F
$$

ABBREVIATIONS USED IN REMARKS
   TC - TEMPERATURE IN CELSIUS
  WCI - WIND CHILL INDEX
   HX - HEAT INDEX
  VSB - VISIBILITY




USA.gov is the U.S. government's official web portal to all federal, state and local government web resources and services.